Regional Weather Roundup
Issued by NWS

Home | Current Version | Previous Version | Text Only | Print | Product List | Glossary Off
Versions: 1 2 3 4 5 6 7 8 9 10 11 12 13 14 15 16 17 18 19 20 21 22 23 24 25 26 27 28 29 30 31 32 33 34 35 36 37 38 39 40 41 42 43 44 45 46 47 48 49 50

000
ASUS45 KCYS 211510
RWRWY

WYOMING REGIONAL WEATHER ROUNDUP
NATIONAL WEATHER SERVICE CHEYENNE WY
900 AM MDT SUN SEP 21 2014

NOTE:  "FAIR" INDICATES FEW OR NO CLOUDS BELOW 12,000 FEET
WITH NO SIGNIFICANT WEATHER AND/OR OBSTRUCTIONS TO VISIBILITY.

WYZ001-211600-
YELLOWSTONE NATIONAL PARK

CITY           SKY/WX    TMP DP  RH WIND       PRES   REMARKS
LK YELLOWSTONE   N/A     46  42  86 CALM      30.43S
W YELLOWSTONE  NOT AVBL

$$
WYZ002>013-054>058-071-098>099-211600-
NORTHERN WYOMING

CITY           SKY/WX    TMP DP  RH WIND       PRES   REMARKS
JACKSON        SUNNY     52  41  66 CALM      30.35S
CODY             N/A    N/A N/A N/A MISG        N/A
GREYBULL       SUNNY     53  44  71 CALM      30.30S
WORLAND        SUNNY     54  45  71 W5        30.30S
SHERIDAN       SUNNY     50  43  77 CALM      30.32R
BUFFALO        SUNNY     56  41  57 SE9       30.34S
GILLETTE       SUNNY     56  43  61 CALM      30.35S
HULETT         FAIR      55  36  47 MISG      30.38
NEWCASTLE      FAIR      55  36  47 CALM      30.39

$$
WYZ014>020-022>026-101>103-211600-
CENTRAL WYOMING

CITY           SKY/WX    TMP DP  RH WIND       PRES   REMARKS
BIG PINEY      MOSUNNY   47  37  68 CALM      30.39R
PINEDALE       MOSUNNY   50  39  66 W6        30.38F
DUBOIS         FAIR      45  36  70 NW6       30.44S
LANDER         SUNNY     58  38  47 NW8       30.36S
RIVERTON       SUNNY     56  35  45 NE3       30.37R
CASPER         SUNNY     54  35  48 VRB3      30.36S
DOUGLAS        SUNNY     60  38  43 SE15      30.38R

$$
WYZ021-027>030-104>119-211600-
SOUTHERN WYOMING

CITY           SKY/WX    TMP DP  RH WIND       PRES   REMARKS
EVANSTON       CLOUDY    53  39  59 E14       30.35F
KEMMERER       CLOUDY    52  37  58 NE7       30.39F
FORT BRIDGER   PTSUNNY   50  41  70 NE5       30.39S
ROCK SPRINGS   MOSUNNY   55  37  50 NE14      30.37S
DIXON          FAIR      50  42  76 CALM      30.38R
RAWLINS        SUNNY     54  37  52 NE12      30.38R
SARATOGA       FAIR      52  43  71 CALM      30.39R
LARAMIE        SUNNY     53  38  56 S23       30.42S
CHEYENNE       CLOUDY    57  37  47 S9        30.42S
TORRINGTON     SUNNY     57  44  62 SE5       30.38R
PINE BLUFFS    PTSUNNY   59  41  51 SE7       30.41S

$$



USA.gov is the U.S. government's official web portal to all federal, state and local government web resources and services.